CYGFM07 (41890 NORAD) Tracking and Keplerian Element Data

This shows tracking and keplerian element data for the satellite.

Feedback or suggestion? Click here.




ElementValue
Catalog41890
NameCYGFM07
Epoch Orbit10663
Epoch Day322.57194092
Epoch Year2018
RAAN38.0172
Inclination34.9532
Eccentricity0.0014424
Argument of Perigee299.3754
Mean Anonmoly60.5517
Mean Motion15.14747625
Decay Rate3.75E-06
L11 41890U 16078G 18322.57194092 .00000375 00000-0 21477-4 0 9997
L22 41890 34.9532 38.0172 0014424 299.3754 60.5517 15.14747625106637

Live tracking and technical data element details for CYGFM07 (NORAD 41890). CYGFM07 can be tracked NOW for your location showing map with azimuth and elevation plus other details from your city location.

Track the satellite on the map from your city or location and see movement details for azimuth, elevation, latitude, longitude, range, height, and movement on the map or in text.







IsCatalogInMostPopularTable: catalog: 41890, numindb: 109
Update: records affected: 1



GetName: 41890 CYGFM07

Hit Count: updated at: Mon, 19 Nov 2018 23:36:23 GMT